Weather History for Cork, Ireland

Change the Weather History Date:

Friday, August 30, 2013

  Actual Average Record
Temperature  
Mean Temperature 61 °F -  
Max Temperature 70 °F 61 °F 70 °F (2013)
Min Temperature 52 °F 49 °F 42 °F (2010)
Degree Days  
Heating Degree Days 4    
Growing Degree Days 11 (Base 50)    
Moisture  
Dew Point 56 °F    
Average Humidity 86    
Maximum Humidity 100    
Minimum Humidity 64    
Precipitation  
Precipitation 0.01 in 0.13 in - ()
Sea Level Pressure  
Sea Level Pressure 30.12 in    
Wind  
Wind Speed 9 mph ()    
Max Wind Speed 22 mph    
Max Gust Speed 31 mph    
Visibility 6.2 miles    
Events Rain    
Averages and records for this station are not official NWS values.
T = Trace of Precipitation, MM = Missing Value Source: Averaged Metar Reports

Daily Weather History Graph

Daily Weather History Graph

Search for Another Location

Airport:

Trip Planner

Search our weather history database for the weather conditions in past years. The results will help you decide how hot, cold, wet, or windy it might be!

Date:

Astronomy

Aug. 30, 2013 Rise Set
Actual Time 6:42 AM IST 8:25 PM IST
Civil Twilight 6:07 AM IST 9:00 PM IST
Nautical Twilight 5:23 AM IST 9:43 PM IST
Astronomical Twilight 4:34 AM IST 10:32 PM IST
Moon 12:47 AM IST (8/30) 4:52 PM IST (8/30)
Length of Visible Light 14h 53m
Length of Day
13h 42m
Waning Crescent, 31% of the Moon is Illuminated
Aug 30
Waning Crescent
Sep 5
New
Sep 12
First Quarter
Sep 19
Full
Sep 27
Last Quarter

Hourly Weather History & Observations

Time (IST) Temp. Dew Point Humidity Pressure Visibility Wind Dir Wind Speed Gust Speed Precip Events Conditions
12:00 AM 57.2 °F 55.4 °F 94% 30.12 in 6.2 mi West 3.5 mph - N/A   Partly Cloudy
12:30 AM 55.4 °F 55.4 °F 100% 30.12 in 6.2 mi West 6.9 mph - N/A   Partly Cloudy
1:00 AM 55 °F 54 °F 95% 30.14 in 25 mi WSW 4.5 mph - -   Scattered Clouds
1:00 AM 55.4 °F 53.6 °F 94% 30.12 in 6.2 mi WSW 4.6 mph - N/A   Partly Cloudy
1:30 AM 53.6 °F 53.6 °F 100% 30.12 in 6.2 mi WSW 6.9 mph - N/A   Partly Cloudy
2:00 AM 53.6 °F 53.6 °F 100% 30.12 in 6.2 mi West 5.8 mph - N/A   Scattered Clouds
2:30 AM 53.6 °F 53.6 °F 100% 30.12 in 6.2 mi West 8.1 mph - N/A   Scattered Clouds
3:00 AM 55.4 °F 55.4 °F 100% 30.09 in 6.2 mi West 8.1 mph - N/A   Partly Cloudy
3:30 AM 55.4 °F 55.4 °F 100% 30.09 in 6.2 mi WSW 5.8 mph - N/A   Partly Cloudy
4:00 AM 53.6 °F 53.6 °F 100% 30.09 in 6.2 mi WSW 3.5 mph - N/A   Partly Cloudy
4:30 AM 55.4 °F 55.4 °F 100% 30.09 in 6.2 mi Variable 1.2 mph - N/A   Scattered Clouds
5:00 AM 57.2 °F 57.2 °F 100% 30.09 in 6.2 mi WSW 6.9 mph - N/A   Mostly Cloudy
5:30 AM 57.2 °F 57.2 °F 100% 30.09 in 6.2 mi SW 6.9 mph - N/A   Mostly Cloudy
6:00 AM 57.2 °F 57.2 °F 100% 30.06 in 6.2 mi SW 10.4 mph - N/A   Mostly Cloudy
6:30 AM 59.0 °F 59.0 °F 100% 30.09 in 1.9 mi SW 8.1 mph - N/A   Mostly Cloudy
7:00 AM 58 °F 58 °F 100% 30.09 in 3 mi WSW 8.9 mph - -   Mist
7:00 AM 59.0 °F 59.0 °F 100% 30.06 in 3.1 mi WSW 8.1 mph - N/A   Mostly Cloudy
7:30 AM 59.0 °F 59.0 °F 100% 30.09 in 6.2 mi WSW 8.1 mph - N/A   Mostly Cloudy
8:00 AM 59.0 °F 59.0 °F 100% 30.06 in 6.2 mi SW 6.9 mph - N/A   Light Drizzle
8:30 AM 60.8 °F 60.8 °F 100% 30.06 in 6.2 mi SW 11.5 mph - N/A   Mostly Cloudy
9:00 AM 60.8 °F 60.8 °F 100% 30.06 in 5.0 mi SW 12.7 mph - N/A   Light Drizzle
9:30 AM 60.8 °F 60.8 °F 100% 30.06 in 6.2 mi SW 13.8 mph - N/A   Light Drizzle
10:00 AM 62.6 °F 62.6 °F 100% 30.06 in 3.1 mi SW 13.8 mph - N/A   Light Drizzle
10:30 AM 62.6 °F 62.6 °F 100% 30.06 in 6.2 mi SW 13.8 mph - N/A   Mostly Cloudy
11:00 AM 64.4 °F 62.6 °F 94% 30.06 in 6.2 mi WSW 16.1 mph - N/A   Mostly Cloudy
11:30 AM 66.2 °F 62.6 °F 88% 30.06 in 6.2 mi WSW 15.0 mph - N/A   Mostly Cloudy
12:00 PM 66.2 °F 59.0 °F 78% 30.06 in 6.2 mi West 17.3 mph - N/A   Mostly Cloudy
12:30 PM 68.0 °F 59.0 °F 73% 30.06 in 6.2 mi WSW 15.0 mph - N/A   Mostly Cloudy
1:00 PM 66 °F 59 °F 72% 30.08 in 31 mi West 15.7 mph - -   Partly Cloudy
1:00 PM 66.2 °F 59.0 °F 78% 30.06 in 6.2 mi West 16.1 mph - N/A   Mostly Cloudy
1:30 PM 68.0 °F 57.2 °F 68% 30.09 in 6.2 mi West 17.3 mph - N/A   Scattered Clouds
2:00 PM 69.8 °F 59.0 °F 68% 30.09 in 6.2 mi West 13.8 mph - N/A   Mostly Cloudy
2:30 PM 69.8 °F 57.2 °F 64% 30.09 in 6.2 mi West 17.3 mph - N/A   Mostly Cloudy
3:00 PM 68.0 °F 55.4 °F 64% 30.09 in 6.2 mi NW 16.1 mph - N/A   Mostly Cloudy
3:30 PM 68.0 °F 55.4 °F 64% 30.12 in 6.2 mi NW 18.4 mph 31.1 mph N/A   Scattered Clouds
4:00 PM 66.2 °F 55.4 °F 68% 30.12 in 6.2 mi NW 13.8 mph - N/A   Partly Cloudy
4:30 PM 68.0 °F 57.2 °F 68% 30.12 in 6.2 mi NW 15.0 mph - N/A   Scattered Clouds
5:00 PM 68.0 °F 57.2 °F 68% 30.12 in 6.2 mi NW 15.0 mph - N/A   Partly Cloudy
5:30 PM 66.2 °F 53.6 °F 64% 30.12 in 6.2 mi NW 16.1 mph - N/A   Mostly Cloudy
6:00 PM 62.6 °F 55.4 °F 77% 30.15 in 6.2 mi WNW 19.6 mph - N/A   Mostly Cloudy
6:30 PM 62.6 °F 55.4 °F 77% 30.15 in 6.2 mi WNW 20.7 mph - N/A   Mostly Cloudy
7:00 PM 63 °F 56 °F 72% 30.17 in 19 mi WNW 13.4 mph - - Rain Light Rain Showers
7:00 PM 62.6 °F 57.2 °F 82% 30.15 in 6.2 mi WNW 13.8 mph - N/A Rain Light Rain Showers
7:30 PM 60.8 °F 55.4 °F 82% 30.18 in 6.2 mi NW 15.0 mph - N/A   Mostly Cloudy
8:00 PM 59.0 °F 53.6 °F 82% 30.21 in 6.2 mi NW 16.1 mph - N/A   Mostly Cloudy
8:30 PM 57.2 °F 51.8 °F 82% 30.21 in 6.2 mi NW 18.4 mph - N/A   Mostly Cloudy
9:00 PM 55.4 °F 51.8 °F 88% 30.24 in 6.2 mi NW 13.8 mph - N/A   Partly Cloudy
9:30 PM 55.4 °F 48.2 °F 77% 30.24 in 6.2 mi NW 15.0 mph 27.6 mph N/A   Partly Cloudy
10:00 PM 55.4 °F 46.4 °F 72% 30.24 in 6.2 mi NNW 19.6 mph - N/A   Partly Cloudy
10:30 PM 53.6 °F 46.4 °F 77% 30.27 in 6.2 mi NNW 19.6 mph - N/A   Partly Cloudy
11:00 PM 53.6 °F 44.6 °F 72% 30.27 in 6.2 mi NNW 21.9 mph - N/A   Partly Cloudy
11:30 PM 53.6 °F 44.6 °F 72% 30.27 in 6.2 mi NNW 16.1 mph - N/A   Partly Cloudy